Location: Nelson
(41.2830°S, 173.2830°E)
Time: 11:53:23
(UTC+13:00)

Radarsat Rocket - Pass Details

Date: 28 September 2021
Orbit: 933 x 1492 km, 100.6° (Epoch: 27 October)

Event Time Altitude Azimuth Distance (km) Brightness Sun altitude
Rises 21:46:43 0° 174° (S) 4,304 7.6 -25.5°
Reaches altitude 10° 21:50:14 10° 188° (S) 3,233 7.1 -26.1°
Maximum altitude 21:55:25 21° 233° (SW) 2,332 6.7 -26.9°
Drops below altitude 10° 22:00:11 10° 280° (W) 2,934 7.1 -27.7°
Sets 22:03:12 0° 295° (WNW) 3,803 7.5 -28.2°
